Location: Hannover
(52.3723°N, 9.7339°E)
Time: 03:55:37
(UTC+01:00)

Oscar 11 - Visible Passes

Search period start: 22 January 2020 00:00
Search period end: 01 February 2020 00:00
Orbit: 614 x 625 km, 97.6° (Epoch: 21 January)

Date Brightness Start Highest point End Pass type
(mag) Time Alt. Az. Time Alt. Az. Time Alt. Az.
22 Jan 9.4 06:40:12 10° NE 06:43:56 27° E 06:47:39 10° SSE visible
22 Jan 7.5 17:40:04 10° SE 17:44:07 40° ENE 17:48:12 10° N visible
22 Jan 9.2 19:16:41 10° SSW 19:20:23 27° W 19:24:07 10° NW visible
23 Jan 8.8 06:57:03 10° NNE 07:01:09 38° E 07:05:13 10° SSE visible
23 Jan 7.1 17:56:54 10° SSE 18:01:08 57° ENE 18:05:24 10° N visible
23 Jan 9.8 19:34:29 10° SW 19:37:38 20° W 19:40:49 10° NW visible
24 Jan 8.0 07:14:00 10° NNE 07:18:19 55° E 07:22:35 10° S visible
24 Jan 7.0 18:13:52 10° SSE 18:18:11 82° ENE 18:22:33 10° NNW visible
24 Jan 10.3 19:52:40 10° WSW 19:54:55 14° W 19:57:12 10° NW visible
25 Jan 10.6 05:57:17 10° ENE 05:58:33 11° E 05:59:48 10° E visible
25 Jan 7.3 07:31:02 10° NNE 07:35:27 79° ESE 07:39:49 10° S visible
25 Jan 7.4 18:30:58 10° S 18:35:17 70° WSW 18:39:39 10° NNW visible
26 Jan 10.2 06:13:10 10° NE 06:15:53 16° E 06:18:34 10° SE visible
26 Jan 8.1 18:48:15 10° S 18:52:26 48° W 18:56:39 10° NNW visible
27 Jan 9.8 06:29:42 10° NE 06:33:09 22° E 06:36:35 10° SE visible
27 Jan 8.9 19:05:41 10° SSW 19:09:36 33° W 19:13:35 10° NNW visible
28 Jan 9.2 06:46:29 10° NNE 06:50:23 31° E 06:54:16 10° SSE visible
28 Jan 7.3 17:46:19 10° SE 17:50:28 47° ENE 17:54:40 10° N visible
28 Jan 9.5 19:23:20 10° SSW 19:26:50 24° W 19:30:22 10° NW visible
29 Jan 8.4 07:03:22 10° NNE 07:07:35 44° E 07:11:45 10° S visible
29 Jan 7.0 18:03:12 10° SSE 18:07:30 67° ENE 18:11:51 10° N visible
29 Jan 10.0 19:41:15 10° SW 19:44:06 17° W 19:46:58 10° NW visible
30 Jan 7.7 07:20:22 10° NNE 07:24:44 64° ESE 07:29:03 10° S visible
30 Jan 7.1 18:20:14 10° SSE 18:24:34 86° WSW 18:28:58 10° NNW visible
30 Jan 10.5 19:59:44 10° WSW 20:01:25 12° W 20:03:06 10° WNW visible
31 Jan 10.4 06:03:01 10° ENE 06:05:03 13° E 06:07:04 10° ESE visible
31 Jan 7.7 18:37:24 10° S 18:41:41 59° W 18:46:01 10° NNW visible
